Weather Roundup
Issued by NWS Springfield, MO

Home | Current Version | Previous Version | Text Only | Print | Product List | Glossary On
Versions: 1 2 3 4 5 6 7 8 9 10 11 12 13 14 15 16 17 18 19 20 21 22 23 24 25 26 27 28 29 30 31 32 33 34 35 36 37 38 39 40 41 42 43 44 45 46 47 48 49 50
000
NZUS99 KSGF 270707
HRRSGF

HOURLY WEATHER
NATIONAL WEATHER SERVICE SPRINGFIELD MO
100 AM CST FRI FEB 27 2015

......SGF CWA......

CITY           SKY/WX    TMP DP  RH WIND       PRES   REMARKS
SPRINGFIELD    PTCLDY    13   2  61 N12       30.48S WCI  -1
JOPLIN         PTCLDY    14   3  61 NE8       30.54R WCI   3
WEST PLAINS    CLEAR     13   3  64 N6        30.47R WCI   4
ROLLA          CLEAR      7  -2  66 N9        30.49R WCI  -7
OSAGE BEACH    CLEAR     10   1  67 N5        30.53S WCI   2

......SURROUNDING SGF CWA......

CITY           SKY/WX    TMP DP  RH WIND       PRES   REMARKS
CHANUTE        CLEAR     11   0  61 NE12      30.56R WCI  -3
PARSONS        PTCLDY    14   1  56 N9        30.58R WCI   2
COFFEYVILLE    PTCLDY    15   1  53 N13       30.57R WCI   1
EMPORIA        CLEAR      7   0  73 NE7       30.55S WCI  -5
GROVE OK       MOCLDY    21   9  58 NE3       30.55R
ROGERS AR      PTCLDY    14   6  70 NE8       30.48R WCI   3
SILOAM SPRINGS PTCLDY    16   1  53 NE6       30.49S WCI   7
HARRISON AR    CLEAR     14   4  64 NW5       30.46R WCI   6
NEAR YELLVILLE CLEAR     18   3  53 N8        30.49R WCI   7

......KANSAS AND MISSOURI......

CITY           SKY/WX    TMP DP  RH WIND       PRES   REMARKS
KANSAS CTY INT CLEAR      3  -4  72 N8        30.58S WCI -10
DOWNTOWN KC    CLEAR      7  -4  60 N12       30.61S WCI  -8
COLUMBIA       CLEAR      6  -2  69 N9        30.56R WCI  -8
SEDALIA        CLEAR      8   0  69 N7        30.59R WCI  -3
ST JOSEPH      CLEAR      0  -4  83 CALM      30.62S
ST LOUIS       CLEAR      8  -3  61 N10       30.56R WCI  -6
SPIRIT OF STL  CLEAR      8  -3  61 N13       30.56R WCI  -8
KIRKSVILLE     CLEAR     -2  -6  83 W5        30.56R WCI -12
WICHITA        PTCLDY    13   0  56 NE13      30.55R WCI  -2
TOPEKA         CLEAR      6  -2  69 N3        30.61S
OLATHE         CLEAR      7  -4  60 N10       30.56S WCI  -8

......TENNESSEE......

CITY           SKY/WX    TMP DP  RH WIND       PRES   REMARKS
MEMPHIS        CLOUDY    26  15  63 NE12      30.44R WCI  16
NASHVILLE      CLOUDY    25  15  66 N13       30.38R WCI  14

......ARKANSAS.......

CITY           SKY/WX    TMP DP  RH WIND       PRES   REMARKS
FAYETTEVILLE   PTCLDY    17   6  62 N3        30.47S
FT SMITH       PTCLDY    24   7  48 N10       30.50F WCI  14
LITTLE ROCK    CLEAR     26  11  52 N13       30.50R WCI  15

......OKLAHOMA.......

CITY           SKY/WX    TMP DP  RH WIND       PRES   REMARKS
TULSA          PTCLDY    19   5  54 N12       30.54S WCI   7
PONCA CITY     PTCLDY    15   2  56 NE8       30.56R WCI   4
MCALESTER      PTCLDY    24   8  50 NE9       30.48S WCI  14
OKLAHOMA CITY  CLOUDY    23   0  36 NE13      30.49R WCI  11

......IOWA............

CITY           SKY/WX    TMP DP  RH WIND       PRES   REMARKS
DES MOINES     CLEAR     -2  -8  76 NW6       30.56S WCI -14
QUAD CITIES    CLEAR     -6 -12  75 W6        30.52R WCI -19

......ILLINOIS........

CITY           SKY/WX    TMP DP  RH WIND       PRES   REMARKS
QUINCY         CLEAR     -3 -10  72 NW7       30.55R WCI -16
CHICAGO        CLEAR      2  -8  63 NW8       30.43R WCI -12



USA.gov is the U.S. government's official web portal to all federal, state and local government web resources and services.